Dewpoint
25 26 26 27 27 28 27 27 25 25 29 29 26 21 22 27 29 32 30 32 32 32 32 33 33 33 33 32 31 30 30 29 29 30 30 29 29 28 28 28 28 27 26 27
17 17 19 18 19 19 18 22 22 25 25 25 23 22 28 31 32 31 29 30 32 33 33 33 33 32 32 32 31 30 29 29 29 29 29 28 28 28 27 27 27 27 26 25
12 11 15 14 14 15 14 16 16 16 17 17 17 23 27 30 32 30 29 30 30 33 33 33 33 32 32 32 31 30 29 30 30 29 28 28 29 29 26 24 27 25 25 24
14 14 9 6 11 11 12 13 13 17 17 17 21 24 28 31 32 31 30 30 31 33 34 34 34 32 32 31 31 30 29 29 29 29 29 29 30 28 22 24 23 23 24 23
15 10 11 15 15 17 18 18 19 19 20 22 24 29 28 28 28 30 31 30 32 32 34 34 33 32 31 31 30 29 29 29 30 30 30 30 28 22 21 21 21 22 22 20
18 12 3 7 16 27 25 17 22 25 26 29 30 26 26 30 30 32 33 33 34 34 34 33 32 31 31 31 30 30 30 31 31 31 30 28 25 22 20 20 20 19 18 16
14 13 14 15 15 27 15 9 24 31 30 31 30 30 31 33 33 33 34 34 34 34 33 32 31 31 30 29 30 31 32 32 31 30 29 25 21 19 18 17 17 16 15 15
15 12 10 12 15 19 19 26 27 29 30 29 29 30 33 33 30 32 33 32 32 32 30 30 29 29 30 30 31 32 31 30 29 28 24 20 19 18 17 17 15 14 13 13
11 6 13 21 27 29 30 27 27 28 29 29 32 33 33 29 29 30 31 31 30 30 30 30 30 30 30 30 31 30 29 28 27 24 18 18 17 17 16 16 16 15 13 13
11 15 18 21 24 26 27 26 28 30 33 34 34 34 34 28 25 27 28 29 29 30 31 31 32 30 30 29 29 28 26 25 24 19 18 18 18 18 16 15 15 15 10 9
20 21 22 23 24 23 24 26 29 30 33 34 34 34 33 27 24 24 26 28 29 26 27 28 29 29 29 28 28 25 24 23 20 20 19 18 18 16 15 12 12 11 9 8
19 21 21 20 20 22 23 25 26 24 28 33 34 34 28 25 23 22 23 23 24 26 28 28 28 27 27 28 27 23 20 19 19 18 17 16 15 15 16 12 15 14 13 10
21 24 24 23 23 25 26 26 23 28 34 35 34 30 25 22 21 21 21 22 25 27 27 27 27 26 26 25 21 19 18 17 17 16 16 15 16 15 15 16 18 18 17 17
24 24 22 23 22 24 23 23 30 33 34 37 32 25 23 21 21 20 20 22 24 26 25 25 24 23 21 20 19 18 18 17 16 15 15 14 14 13 13 15 14 12 14 15
21 22 22 22 23 22 23 24 25 31 30 28 28 26 23 20 21 20 23 25 25 24 23 21 21 19 20 19 17 17 17 15 14 14 14 13 12 11 11 10 9 9 9 11
21 21 21 22 23 23 24 28 32 30 26 25 24 23 22 23 23 23 25 24 24 22 20 19 19 17 17 17 16 16 15 14 14 12 11 10 10 9 9 9 9 9 8 9
22 22 23 25 28 27 26 33 34 29 26 24 24 24 24 24 24 23 22 21 19 17 17 17 16 14 15 15 15 14 14 14 14 13 12 11 10 11 11 10 10 9 9 7
36 35 35 34 31 28 32 36 32 28 26 25 25 24 24 25 24 21 17 14 14 13 13 14 14 14 14 15 16 15 15 14 14 13 11 10 10 11 11 10 10 8 9 8
35 35 35 36 35 31 31 34 30 28 28 26 26 26 26 25 21 16 12 12 11 11 11 12 14 14 14 15 16 15 14 14 14 13 12 12 11 11 10 10 8 9 8 8
33 33 33 36 33 32 32 30 30 28 27 26 23 23 22 17 14 11 11 11 12 13 12 14 14 14 15 18 16 14 12 10 10 11 11 11 10 9 9 9 8 10 8 9
31 33 34 33 32 30 30 30 29 26 24 24 24 21 17 11 10 10 11 11 12 13 14 15 14 14 15 15 15 15 13 13 13 12 9 10 9 9 8 8 10 10 10 8
29 31 30 31 31 30 30 31 28 23 20 18 15 13 11 10 9 10 11 12 13 14 15 15 14 13 14 14 14 13 11 12 13 12 9 8 8 9 10 11 11 10 9 7
26 29 30 29 30 26 24 24 23 20 17 16 14 12 12 11 12 12 13 14 14 14 14 15 13 12 11 12 12 11 10 9 9 10 9 8 8 9 11 10 9 8 7 6
24 24 23 22 22 22 22 19 19 18 16 14 13 13 14 13 13 14 14 15 14 14 13 13 13 11 10 10 10 10 9 7 7 7 8 9 9 9 8 10 9 6 3 2
21 20 20 21 22 21 19 18 17 16 16 15 14 14 15 15 15 14 15 14 14 14 13 13 13 12 10 10 10 10 8 4 6 8 9 10 10 10 9 8 6 3 1 -1
22 21 21 21 21 19 19 18 18 17 16 14 14 14 14 13 15 14 14 14 13 13 13 12 11 10 9 9 8 8 9 10 11 11 11 10 8 7 6 3 2 -0 -2 -4
24 23 22 21 20 20 19 19 18 17 16 16 15 13 14 14 14 14 14 14 14 13 11 10 8 8 7 7 7 7 8 10 10 10 8 7 6 4 3 1 -2 -5 -8 -8
Wind_Speed
12 8 11 19 21 22 22 23 19 27 18 33 32 33 26 25 25 21 19 10 19 23 23 23 23 23 22 23 23 25 26 24 23 19 21 21 20 18 17 17 17 16 16 14
17 15 12 18 26 31 22 26 27 30 30 34 38 30 25 25 21 25 20 16 18 24 23 26 28 27 25 26 27 26 24 22 18 17 20 20 18 17 15 15 15 16 15 17
19 17 5 13 28 25 27 30 27 30 34 33 31 30 26 20 22 25 18 20 22 21 27 27 29 28 29 24 22 24 25 23 23 21 20 18 17 16 15 15 15 17 16 16
20 19 12 15 17 23 27 29 29 29 32 32 32 31 17 18 20 24 27 21 22 17 21 24 23 24 24 27 25 23 22 25 23 22 20 17 15 15 14 14 17 17 16 14
8 20 20 18 15 3 6 19 25 27 29 26 25 9 24 16 17 19 24 20 21 17 14 21 25 26 27 27 25 26 26 25 24 23 21 19 18 18 15 14 13 14 15 15
5 15 23 21 12 3 3 20 20 12 19 20 13 14 23 16 18 21 16 22 21 10 16 22 23 26 27 25 26 24 24 25 25 22 20 19 18 17 14 14 14 14 14 12
22 15 10 17 29 2 13 20 8 5 7 14 15 15 18 18 20 11 11 14 2 13 16 18 22 25 25 24 22 24 24 23 21 20 19 18 18 17 18 16 15 13 12 10
9 9 18 20 17 17 14 4 13 15 18 17 20 28 21 19 14 11 5 4 9 13 17 18 21 25 23 22 24 25 24 22 20 18 17 17 20 16 16 17 16 13 12 9
10 18 18 11 12 15 21 24 21 20 20 22 19 18 22 11 2 0 4 8 10 16 17 17 17 21 24 22 23 23 23 21 18 16 15 16 18 17 16 14 14 12 11 11
28 30 32 34 31 30 29 25 16 19 20 17 20 19 20 7 4 6 8 12 13 16 16 17 16 19 21 22 23 23 22 19 17 18 17 14 13 13 15 15 13 11 13 13
23 38 25 29 26 24 21 17 15 16 17 18 20 22 18 11 9 9 11 13 13 15 17 19 21 22 22 22 24 22 21 18 16 16 17 15 12 14 14 10 14 15 14 14
36 28 23 23 18 16 16 19 19 23 21 15 14 20 10 9 11 13 16 17 16 14 16 15 17 19 20 19 20 22 19 16 16 17 16 15 16 11 7 11 10 11 13 13
39 34 26 24 22 18 22 20 23 21 17 19 10 6 10 10 11 13 14 15 17 17 14 14 15 17 16 17 18 18 19 17 15 17 16 18 16 16 15 6 4 11 12 14
25 20 24 19 18 13 14 23 19 19 19 12 9 11 14 14 16 18 17 17 18 18 17 16 17 16 15 17 18 18 17 18 17 16 16 16 17 17 16 15 11 6 2 1
26 25 30 31 26 24 21 19 18 16 8 4 9 13 17 19 18 17 17 17 15 18 16 17 18 16 15 18 19 19 17 16 16 16 16 17 15 14 13 12 11 8 2 1
22 22 22 23 23 22 21 19 13 10 9 8 12 13 14 15 18 18 16 17 20 18 17 19 17 16 16 17 17 15 15 19 18 17 16 15 14 14 12 10 8 7 7 8
21 25 21 22 25 23 22 14 11 12 11 13 14 16 18 19 18 15 12 8 12 15 17 20 21 14 16 17 17 15 16 16 17 15 15 15 15 14 12 10 9 9 10 7
20 21 22 20 18 18 11 10 11 14 15 15 16 18 20 21 20 17 15 14 16 15 11 14 18 16 15 15 15 15 15 15 15 16 14 14 15 13 11 10 9 9 8 6
19 24 24 25 20 19 14 13 13 15 17 19 20 19 16 14 16 17 16 18 19 19 12 14 15 16 15 13 14 14 15 15 14 13 13 12 11 11 11 10 9 10 8 7
23 24 21 17 13 14 14 13 16 17 16 17 16 16 15 14 17 20 16 17 12 9 18 17 15 14 14 13 13 14 15 16 14 13 12 12 12 12 11 9 9 8 8 8
18 13 5 12 13 15 18 18 17 17 14 15 19 19 18 16 18 20 18 16 9 13 17 18 15 13 12 13 14 14 12 12 13 13 12 12 11 10 10 8 8 9 9 7
15 6 5 16 19 16 13 15 16 16 16 16 15 17 20 18 18 11 4 12 13 16 15 13 13 14 14 15 14 13 11 10 11 12 10 9 11 11 10 9 11 10 7 6
12 7 6 7 14 15 12 12 15 18 20 19 20 20 19 17 16 18 15 9 14 15 14 14 15 16 16 14 14 13 11 10 10 12 11 11 10 10 10 10 9 6 6 6
11 7 3 6 12 15 16 10 14 14 15 14 15 17 19 18 10 3 7 16 17 17 15 16 16 15 15 14 13 12 10 9 9 10 9 8 9 9 7 7 7 5 5 5
6 3 4 10 12 11 14 15 16 15 16 14 13 13 11 11 8 12 15 16 19 17 15 16 16 15 13 13 12 11 10 9 8 9 9 9 9 7 7 6 5 5 5 4
4 0 2 1 6 10 13 13 16 14 16 15 11 11 12 7 14 15 16 16 17 16 16 15 15 14 13 11 10 10 10 8 7 8 8 8 8 8 7 5 4 4 4 3
3 2 4 5 6 10 11 12 17 17 14 16 16 13 14 12 16 16 17 16 16 16 16 15 14 14 13 13 12 11 8 6 6 7 8 9 8 7 6 5 4 3 2 2
Wind_Direction
267 274 279 281 281 274 268 268 267 283 276 286 292 292 288 291 301 308 302 256 217 210 198 190 189 188 185 180 172 167 166 170 170 170 151 149 153 153 152 159 167 158 148 141
285 268 253 261 265 266 269 258 261 263 271 268 279 281 283 280 293 281 288 286 243 222 207 199 193 191 186 180 176 171 169 164 156 157 146 150 148 149 153 157 154 150 145 146
282 290 283 264 251 256 256 261 260 262 260 275 284 285 279 289 267 272 284 284 279 230 213 205 198 191 186 180 170 169 164 155 153 159 148 141 139 148 159 153 151 149 150 147
272 291 242 255 251 252 257 265 272 270 267 270 274 277 295 271 282 289 283 276 266 264 224 205 193 185 170 164 166 166 161 150 150 147 138 130 141 162 147 155 157 151 145 141
237 260 273 288 272 269 288 286 275 265 265 263 271 324 292 289 284 286 289 273 271 267 219 180 177 168 163 163 162 159 155 146 142 135 139 152 164 155 150 144 145 143 140 136
261 283 279 282 274 197 317 290 271 274 267 282 300 291 283 301 286 301 305 286 281 258 164 159 165 156 154 161 157 156 147 140 135 144 154 162 159 147 143 149 143 136 135 127
246 253 264 257 268 68 270 272 279 274 278 293 290 264 279 299 307 317 324 309 324 140 143 146 148 147 145 145 150 139 132 133 138 143 156 167 144 140 143 137 131 134 135 128
225 237 267 259 269 227 244 276 279 273 278 274 265 276 288 297 305 344 359 23 77 102 116 131 141 136 138 138 139 137 135 138 142 147 159 148 140 139 137 135 134 135 139 140
225 252 253 256 244 264 280 284 283 281 275 268 270 278 292 288 293 333 125 97 93 107 111 116 127 138 135 136 136 131 130 132 137 148 140 139 140 139 133 135 141 151 155 158
264 259 261 263 268 269 273 270 281 294 279 278 284 291 294 266 188 149 122 114 118 117 117 115 119 118 127 129 127 126 125 130 142 140 132 130 132 135 141 149 154 161 166 168
272 264 267 263 257 266 268 288 294 297 287 282 287 289 279 229 184 156 137 129 126 122 125 125 128 134 136 133 130 128 132 141 139 132 133 134 130 146 152 161 169 173 178 173
254 262 249 263 270 275 284 287 296 303 293 279 261 272 247 200 173 155 140 126 121 129 134 134 133 125 125 130 134 134 135 138 137 138 140 140 135 119 138 158 170 173 173 178
248 257 257 256 268 268 270 282 292 293 280 286 287 220 175 163 150 135 128 129 135 131 121 115 119 121 123 128 133 136 140 138 138 145 148 148 145 144 146 144 203 188 192 201
240 256 271 261 268 258 264 281 273 272 279 279 231 169 149 149 141 143 144 131 123 126 128 126 126 126 133 135 132 134 135 142 149 151 151 155 160 167 166 170 170 168 55 184
253 249 255 268 275 276 274 276 279 263 234 175 165 162 146 148 148 142 129 122 126 127 130 134 137 141 140 137 138 144 143 146 149 153 157 160 162 165 171 175 184 182 179 214
263 254 254 256 263 263 273 281 269 234 184 163 162 150 145 136 130 129 130 141 147 152 147 143 147 151 144 137 136 138 141 147 150 151 153 157 163 168 171 178 183 194 208 224
276 275 266 266 264 258 259 252 231 209 168 160 154 141 133 127 121 131 133 132 138 142 145 150 154 148 139 140 142 144 146 150 152 154 163 171 173 179 180 179 196 216 229 232
277 276 272 249 252 261 244 208 185 169 168 158 147 140 141 148 156 154 147 133 125 123 132 143 144 143 141 143 143 146 149 155 160 168 168 174 183 183 184 192 210 227 229 244
281 286 277 250 234 236 228 189 166 150 145 147 145 152 153 151 151 149 143 142 149 152 162 149 144 140 145 149 145 146 152 157 163 168 174 179 184 188 188 198 222 227 235 249
299 293 264 231 203 192 169 149 143 144 144 142 141 144 152 153 150 148 150 156 162 172 155 153 147 149 150 149 146 155 160 164 168 174 179 184 187 193 199 211 227 227 239 247
328 336 181 161 153 145 149 145 144 149 152 151 158 164 162 152 150 148 151 163 165 146 150 152 153 152 153 156 159 162 162 174 184 183 182 191 197 202 207 216 225 235 242 247
343 12 115 141 141 132 133 138 139 142 146 143 139 142 145 149 150 144 126 166 156 151 149 154 158 161 165 164 167 167 167 175 183 181 183 189 200 202 214 226 232 232 235 244
350 17 92 111 133 131 123 137 148 152 154 155 156 159 161 162 161 158 163 155 149 155 153 162 166 168 167 168 171 175 176 177 182 185 189 197 203 205 219 233 230 218 229 235
346 2 57 109 124 131 138 136 140 142 144 144 150 155 149 150 151 133 129 153 154 157 163 166 167 165 166 171 173 175 178 186 194 192 194 200 205 215 222 210 205 211 219 227
346 349 133 152 155 146 137 139 129 132 134 134 143 145 141 145 157 170 154 156 158 157 159 165 167 169 170 172 175 180 182 187 197 197 196 197 205 202 189 187 204 213 224 231
338 46 142 147 169 152 148 148 148 149 142 140 143 146 143 145 143 145 152 150 157 159 161 165 166 167 168 172 176 172 169 167 177 194 197 197 176 171 175 180 191 201 217 243
324 168 149 131 141 153 156 158 158 164 160 156 156 166 157 139 144 144 149 153 158 159 159 161 161 162 161 157 158 161 163 163 172 171 164 158 155 161 166 174 181 192 216 249